Location: Waco, TX
(31.5480°N, 97.1670°W)
Time: 11:58:32
(UTC-05:00)

ISS - Pass Details

Date: 15 August 2018
Orbit: 401 x 409 km, 51.6° (Epoch: 19 August)

Event Time Altitude Azimuth Distance (km) Brightness Sun altitude
Rises 11:34:41 0° 236° (SW) 2,300 -0.2 57.7°
Reaches altitude 10° 11:36:48 10° 243° (WSW) 1,444 -1.1 58.1°
Maximum altitude 11:39:55 45° 317° (NW) 554 -2.9 58.7°
Drops below altitude 10° 11:43:04 10° 33° (NNE) 1,450 -0.9 59.2°
Sets 11:45:12 0° 39° (NE) 2,311 0.1 59.6°
